Greensboro Piedmont-Triad Airport (GSO)

 

Airport Diagram
Current Weather/Forecast (MVFR Conditions)
METAR KGSO 260554Z 05009KT 10SM FEW010 OVC028 11/09 A2996 RMK AO2 SLP141 60005 T01060089 10133 20106 51009
TAF KGSO 260534Z 2606/2706 03007KT 6SM BR VCSH SCT004 OVC013 TEMPO 2606/2609 5SM BR BKN004 FM261000 04011G20KT 6SM BR BKN005 OVC015 FM261500 04012G20KT P6SM BKN035 FM261800 04011G18KT P6SM SCT050 FM270000 05005KT P6SM SKC

All Charts
General
Chart Name Download
AIRPORT DIAGRAM
TAKEOFF MINIMUMS
ALTERNATE MINIMUMS

Departures
Chart Name Download
QUAKER SEVEN
TRIAD NINE
TRSHA ONE (RNAV)

Arrivals
Chart Name Download
BLOCC TWO
BROOK THREE
HENBY THREE
SMOKN THREE
TRAKS TWO (RNAV)

Approaches
Chart Name Download
ILS OR LOC RWY 05L
ILS OR LOC RWY 05R
ILS OR LOC RWY 23L
ILS OR LOC RWY 23R
ILS Y OR LOC/DME Y RWY 32
ILS Z OR LOC/DME Z RWY 32
ILS RWY 23L (CAT II)
ILS RWY 05L (CAT II - III)
ILS RWY 05R (SA CAT II)
RNAV (GPS) RWY 05L
RNAV (GPS) RWY 05R
RNAV (GPS) RWY 14
RNAV (GPS) RWY 23L
RNAV (GPS) RWY 23R
RNAV (GPS) RWY 32
VOR/DME RWY 23L


Inbound Traffic (Arrivals)

No inbound traffic.


Outbound Traffic (Departures)

No outbound traffic.